sat.trackr.live / text

‹ back to catalog

STARLINK-5569

NORAD 55379 · 2023-013BA

PAYLOAD ACTIVE UNKNOWN

§ Identity

Operator
Country
US
Launch date
2023-01-26
Launch site
AFETR
Launch vehicle
Mass (kg)
RCS (m²)

Purposes: comms

External: N2YO · Heavens-Above · Gunter

§ Orbital elements

Epoch: 2026-09-20T13:20:56.880960Z

Period
94.27 min
Inclination
43.0054°
Eccentricity
0.0002380
Mean motion
15.27577893 rev/d
Perigee alt
481.4 km
Apogee alt
484.7 km
Semi-major
6,861.2 km
B*
1.0931e-5
RAAN
297.7661°
Arg perigee
295.9491°
Mean anomaly
64.1115°
Rev number
20,130

§ Raw data

STARLINK-55691 55379U 23013BA  26263.55621390  .00000038  00000+0  10931-4 0  99962 55379  43.0054 297.7661 0002380 295.9491  64.1115 15.27577893201305

JSON: /api/v1/satellites/55379 · /tle

For live sub-satellite position, see the globe view (requires WebGL).

§ Visibility from observer

Set your observer location to see the next 7 days of passes ≥ 10°. The values pass through the URL so the page stays shareable.

No JS? Fill the form by hand. The geolocation button needs JavaScript.